User: anonymous   Login
Location: Unspecified
(0.0000°N, 0.0000°E)
Time: 22:29:24
(UTC+00:00)
Language:

APRIZESAT 3 - Orbit

View from above orbital plane
View from above orbital plane
View from above satellite
View from above satellite

Ground track
Ground track

The orbit data is extracted from the following two-line orbital elements,

1 35686U 09041F   18175.09838790  .00000080  00000-0  15503-4 0  9994
2 35686  98.2707 195.3533 0071826 244.7901 114.5856 14.87215145482465
Epoch (UTC): 24 June 2018 02:21:40
Eccentricity: 0.0071826
inclination: 98.2707°
perigee height: 556 km
apogee height: 657 km
right ascension of ascending node: 195.3533°
argument of perigee: 244.7901°
revolutions per day: 14.87215145
mean anomaly at epoch: 114.5856°
orbit number at epoch: 48246

The dashed part of the orbit path shows where the satellite is in the earth's shadow,  

DLR